TV
NORAD ID: 24901
Int'l Code: 1997-042A
Perigee: 35,770.2 km
Apogee: 35,816.5 km
Inclination: 2.0 °
Period: 1,436.1 minutes
Semi major axis: 42164 km
Launch date: August 19, 1997
Source: People's Republic of China (PRC)
Comments: Most powerful telecommunications satellite in service in the Asia-Pacific region; 30 C-band, 24 Ku-band transponders; 190 high fidelity channels and 50,000 simultaneous telephone links.
Two Line Element Set (TLE):
1 24901U 97042A 13143.11825569 -.00000026 00000-0 10000-3 0 8809
2 24901 001.9817 073.9129 0005492 336.2735 230.2329 01.00273142 57704
Source: AFSPC
NASA's NSSDC Master Catalog entry for ABS 3